Location: ?????
(37.7324°N, 23.9257°E)
Time: 21:27:53
(UTC+00:00)

ERS-2 - Pass Details

Date: 29 November 2020
Orbit: 492 x 498 km, 98.6° (Epoch: 19 January)

Event Time Altitude Azimuth Distance (km) Brightness Sun altitude
Rises 04:14:40 0° 202° (SSW) 2,560 5.7 -12.6°
Reaches altitude 10° 04:17:18 10° 223° (SW) 1,685 4.6 -12.1°
Maximum altitude 04:19:41 17° 265° (W) 1,331 3.7 -11.7°
Enters shadow 04:20:00 16° 271° (W) 1,339 3.7 -11.6°
